Location: Barrio Las Umbrías
(40.4173°N, 4.8685°W)
Time: 13:13:03
(UTC+00:00)

Cosmos 1833 Rocket - Pass Details

Date: 17 August 2022
Orbit: 831 x 841 km, 71.0° (Epoch: 27 September)

Event Time Altitude Azimuth Distance (km) Brightness Sun altitude
Rises 21:09:06 0° 346° (NNW) 3,403 6.7 -20.0°
Reaches altitude 10° 21:11:56 10° 358° (N) 2,465 5.7 -20.4°
Maximum altitude 21:16:41 27° 55° (NE) 1,571 3.9 -21.1°
Enters shadow 21:17:53 25° 76° (ENE) 1,642 3.9 -21.3°
